CW3783 Weather Reports


Display with metric or nautical units.
time (UTC)temp
F
wind
direction
speed
MPH
gust
MPH
rain 1hr
in
rain 24hr
in
rain mn
in
humidity
%
barometer
mb
20260510070303 55 349 0.0 1.0 0.00 0.00 0.00 88 1008.6
20260510065803 55 349 0.0 2.0 0.00 0.00 0.00 88 1008.6
20260510065306 55 349 2.0 3.0 0.00 0.00 0.00 88 1008.5
20260510064803 55 349 2.0 3.0 0.00 0.00 0.00 87 1008.5
20260510064303 55 349 1.0 2.0 0.00 0.00 0.00 87 1008.4
20260510063803 55 349 1.0 2.0 0.00 0.00 0.00 87 1008.3
20260510062803 56 349 1.0 2.0 0.00 0.00 0.00 87 1008.3
20260510062306 56 349 1.0 3.0 0.00 0.00 0.00 87 1008.3
20260510061804 56 349 1.0 2.0 0.00 0.00 0.00 87 1008.4
20260510061303 56 349 1.0 2.0 0.00 0.00 0.00 87 1008.4
20260510060804 56 349 1.0 3.0 0.00 0.00 0.00 87 1008.4
20260510060305 56 9 3.0 3.0 0.00 0.00 0.00 87 1008.3
20260510055804 56 343 0.0 0.0 0.00 0.00 0.00 87 1008.5
20260510055306 57 343 1.0 3.0 0.00 0.00 0.00 87 1008.5
20260510054804 57 343 1.0 2.0 0.00 0.00 0.00 86 1008.6
20260510054304 57 343 1.0 3.0 0.00 0.00 0.00 86 1008.6
20260510053804 57 351 2.0 3.0 0.00 0.00 0.00 86 1008.6
20260510053303 57 348 2.0 3.0 0.00 0.00 0.00 86 1008.6
20260510052803 57 355 3.0 3.0 0.00 0.00 0.00 85 1008.6
20260510052306 57 357 2.0 3.0 0.00 0.00 0.00 85 1008.6
20260510051803 57 357 2.0 3.0 0.00 0.00 0.00 85 1008.5
20260510051303 58 342 2.0 3.0 0.00 0.00 0.00 85 1008.5
20260510050803 58 356 2.0 3.0 0.00 0.00 0.00 85 1008.6
20260510045803 58 73 3.0 3.0 0.00 0.00 0.00 84 1008.6
20260510045306 58 73 1.0 3.0 0.00 0.00 0.00 84 1008.6
20260510044303 58 73 0.0 0.0 0.00 0.00 0.00 84 1008.6
20260510043803 59 73 0.0 0.0 0.00 0.00 0.00 84 1008.7
20260510043303 59 73 0.0 0.0 0.00 0.00 0.00 83 1008.6
20260510042804 59 73 0.0 0.0 0.00 0.00 0.00 83 1008.7
20260510041804 59 73 0.0 0.0 0.00 0.00 0.00 83 1008.6
20260510040803 60 73 0.0 0.0 0.00 0.00 0.00 83 1008.6
20260510040303 60 73 0.0 0.0 0.00 0.00 0.00 83 1008.6
20260510035804 60 73 0.0 0.0 0.00 0.00 0.00 82 1008.6
20260510035306 60 73 0.0 0.0 0.00 0.00 0.00 82 1008.6
20260510034804 60 73 1.0 3.0 0.00 0.00 0.00 82 1008.5
20260510034304 60 73 1.0 3.0 0.00 0.00 0.00 82 1008.5
20260510033803 60 73 0.0 0.0 0.00 0.00 0.00 82 1008.5
20260510033303 60 73 0.0 1.0 0.00 0.00 0.00 82 1008.5
20260510032306 60 73 0.0 2.0 0.00 0.00 0.00 82 1008.5
20260510031803 61 73 1.0 3.0 0.00 0.00 0.00 82 1008.6
20260510031304 61 73 1.0 3.0 0.00 0.00 0.00 82 1008.5
20260510030804 61 73 1.0 2.0 0.00 0.00 0.00 81 1008.4
20260510030303 61 73 1.0 3.0 0.00 0.00 0.00 81 1008.4
20260510025803 61 73 2.0 3.0 0.00 0.00 0.00 81 1008.4
20260510025306 61 73 2.0 3.0 0.00 0.00 0.00 81 1008.4
20260510024804 61 73 1.0 3.0 0.00 0.00 0.00 81 1008.4
20260510024303 61 73 2.0 3.0 0.00 0.00 0.00 80 1008.4
20260510023803 62 87 1.0 3.0 0.00 0.00 0.00 80 1008.3
20260510023303 62 96 2.0 6.0 0.00 0.00 0.00 80 1008.3
20260510022306 62 72 2.0 3.0 0.00 0.00 0.00 80 1008.3
20260510021803 62 78 2.0 7.0 0.00 0.00 0.00 79 1008.4
20260510021303 62 78 2.0 7.0 0.00 0.00 0.00 79 1008.4
20260510020803 62 84 2.0 6.0 0.00 0.00 0.00 79 1008.3
20260510015803 63 81 2.0 8.0 0.00 0.00 0.00 78 1008.3
20260510015306 63 69 3.0 5.0 0.00 0.00 0.00 78 1008.3
20260510014803 63 74 3.0 5.0 0.00 0.00 0.00 78 1008.2
20260510014303 63 105 2.0 6.0 0.00 0.00 0.00 78 1008.1
20260510013803 63 82 3.0 8.0 0.00 0.00 0.00 77 1008.2
20260510013303 63 87 3.0 8.0 0.00 0.00 0.00 77 1008.1
20260510012803 64 100 3.0 6.0 0.00 0.00 0.00 76 1008.1
20260510012306 64 146 2.0 5.0 0.00 0.00 0.00 75 1008.0
20260510011803 64 129 2.0 3.0 0.00 0.00 0.00 74 1007.8
20260510011303 64 101 3.0 6.0 0.00 0.00 0.00 74 1007.7
20260510010803 64 146 2.0 3.0 0.00 0.00 0.00 73 1007.7
20260510010304 64 159 2.0 3.0 0.00 0.00 0.00 73 1007.6
20260510005804 65 156 2.0 3.0 0.00 0.00 0.00 72 1007.6
20260510004803 65 151 3.0 5.0 0.00 0.00 0.00 71 1007.5
20260510004303 65 120 2.0 3.0 0.00 0.00 0.00 71 1007.5
20260510003804 66 121 2.0 3.0 0.00 0.00 0.00 71 1007.3
20260510003303 66 139 2.0 5.0 0.00 0.00 0.00 70 1007.3
20260510002306 66 118 3.0 3.0 0.00 0.00 0.00 70 1007.3
20260510001803 67 118 2.0 3.0 0.00 0.00 0.00 69 1007.3
20260510001303 67 106 1.0 3.0 0.00 0.00 0.00 69 1007.2
20260510000803 67 120 2.0 3.0 0.00 0.00 0.00 69 1007.2
20260510000304 67 106 2.0 3.0 0.00 0.00 0.00 69 1007.2
20260509235804 67 110 5.0 6.0 0.00 0.00 0.00 69 1007.2
20260509235306 68 113 2.0 6.0 0.00 0.00 0.00 68 1007.1
20260509234803 68 118 2.0 7.0 0.00 0.00 0.00 68 1007.0
20260509234303 68 114 3.0 7.0 0.00 0.00 0.00 68 1007.0
20260509233303 68 101 3.0 6.0 0.00 0.00 0.00 67 1007.0
20260509232805 68 131 4.0 8.0 0.00 0.00 0.00 67 1006.8
20260509232306 69 111 3.0 6.0 0.00 0.00 0.00 66 1006.8
20260509230804 69 141 3.0 5.0 0.00 0.00 0.00 65 1006.7
20260509230304 69 153 3.0 6.0 0.00 0.00 0.00 65 1006.7
20260509225306 69 144 3.0 3.0 0.00 0.00 0.00 64 1006.7
20260509224303 69 165 3.0 3.0 0.00 0.00 0.00 64 1006.7
20260509223303 69 102 4.0 7.0 0.00 0.00 0.00 63 1006.8
20260509222306 70 94 5.0 8.0 0.00 0.00 0.00 63 1006.9
20260509221803 70 145 3.0 5.0 0.00 0.00 0.00 63 1006.8
20260509220803 70 104 5.0 9.0 0.00 0.00 0.00 63 1006.9
20260509220303 70 133 5.0 12.0 0.00 0.00 0.00 64 1006.9
20260509215803 70 107 5.0 8.0 0.00 0.00 0.00 64 1006.8
20260509215306 70 107 3.0 7.0 0.00 0.00 0.00 64 1006.8
20260509214803 70 128 3.0 6.0 0.00 0.00 0.00 63 1006.9
20260509214303 70 105 4.0 7.0 0.00 0.00 0.00 63 1007.0
20260509213803 71 101 3.0 7.0 0.00 0.00 0.00 63 1007.0
20260509213303 71 133 6.0 10.0 0.00 0.00 0.00 62 1006.9
20260509212804 71 118 6.0 9.0 0.00 0.00 0.00 62 1006.9
20260509212306 72 152 5.0 9.0 0.00 0.00 0.00 62 1006.9
20260509211804 72 105 6.0 9.0 0.00 0.00 0.00 62 1006.9
20260509211304 72 117 5.0 9.0 0.00 0.00 0.00 62 1006.8
20260509210805 72 135 3.0 9.0 0.00 0.00 0.00 61 1006.8
20260509210303 72 86 2.0 8.0 0.00 0.00 0.00 61 1006.7
20260509205803 72 151 6.0 9.0 0.00 0.00 0.00 61 1006.7
20260509205306 72 175 1.0 3.0 0.00 0.00 0.00 60 1006.7
20260509204803 72 93 1.0 3.0 0.00 0.00 0.00 60 1006.6
20260509203804 72 157 7.0 9.0 0.00 0.00 0.00 61 1006.7
20260509203304 72 133 5.0 12.0 0.00 0.00 0.00 61 1006.6
20260509202803 71 135 5.0 9.0 0.00 0.00 0.00 61 1006.6
20260509201303 71 105 5.0 9.0 0.00 0.00 0.00 61 1006.8
20260509200803 71 174 4.0 8.0 0.00 0.00 0.00 61 1006.9
20260509200303 71 108 3.0 7.0 0.00 0.00 0.00 62 1007.0
20260509195306 71 146 1.0 7.0 0.00 0.00 0.00 61 1007.2
20260509193803 70 148 5.0 8.0 0.00 0.00 0.00 60 1007.5
20260509193303 70 180 3.0 8.0 0.00 0.00 0.00 60 1007.6
20260509192804 70 174 2.0 5.0 0.00 0.00 0.00 59 1007.4
20260509192305 70 129 3.0 8.0 0.00 0.00 0.00 59 1007.5
20260509191803 70 142 3.0 5.0 0.00 0.00 0.00 60 1007.5
20260509191303 70 138 5.0 9.0 0.00 0.00 0.00 59 1007.6
20260509190803 70 132 5.0 8.0 0.00 0.00 0.00 58 1007.7
20260509190303 70 135 4.0 9.0 0.00 0.00 0.00 59 1007.9
20260509185803 69 136 4.0 8.0 0.00 0.00 0.00 60 1007.9
20260509185306 69 131 5.0 10.0 0.00 0.00 0.00 60 1007.8
20260509184804 69 126 4.0 6.0 0.00 0.00 0.00 60 1007.8
20260509184303 68 91 2.0 3.0 0.00 0.00 0.00 61 1008.0
20260509183803 68 26 2.0 3.0 0.00 0.00 0.00 61 1008.0
20260509183303 68 39 2.0 3.0 0.00 0.00 0.00 61 1008.0
20260509182803 68 46 2.0 5.0 0.00 0.00 0.00 62 1008.0
20260509182306 67 9 4.0 9.0 0.00 0.00 0.00 62 1008.1
20260509181803 67 26 2.0 5.0 0.00 0.00 0.00 62 1008.2
20260509180803 67 356 5.0 7.0 0.00 0.00 0.00 61 1008.5
20260509175803 68 4 5.0 9.0 0.00 0.00 0.00 61 1008.7
20260509175306 68 346 6.0 9.0 0.00 0.00 0.00 61 1008.7
20260509174304 67 314 2.0 3.0 0.00 0.00 0.00 62 1008.6
20260509173804 67 19 3.0 6.0 0.00 0.00 0.00 62 1008.6
20260509173303 67 346 4.0 7.0 0.00 0.00 0.00 62 1008.6
20260509172803 67 344 4.0 7.0 0.00 0.00 0.00 63 1008.6
20260509172306 67 326 2.0 7.0 0.00 0.00 0.00 64 1008.7
20260509171304 67 337 3.0 7.0 0.00 0.00 0.00 62 1008.7
20260509170803 67 306 4.0 6.0 0.00 0.00 0.00 62 1008.9
20260509170303 67 1 2.0 5.0 0.00 0.00 0.00 62 1008.8
20260509165306 68 7 1.0 3.0 0.00 0.00 0.00 61 1008.7
20260509163804 68 202 1.0 3.0 0.00 0.00 0.00 59 1008.9
20260509163303 68 229 3.0 10.0 0.00 0.00 0.00 59 1008.9
20260509162804 68 201 4.0 8.0 0.00 0.00 0.00 59 1008.8
20260509162307 68 193 4.0 10.0 0.00 0.00 0.00 59 1008.9
20260509161803 68 196 4.0 12.0 0.00 0.00 0.00 58 1008.9
20260509161304 68 221 4.0 12.0 0.00 0.00 0.00 58 1008.9
20260509160803 68 172 7.0 12.0 0.00 0.00 0.00 59 1009.1
20260509160303 68 214 5.0 12.0 0.00 0.00 0.00 59 1009.1
20260509155803 68 222 6.0 13.0 0.00 0.00 0.00 60 1009.1
20260509155306 68 194 6.0 13.0 0.00 0.00 0.00 58 1009.2
20260509154304 68 238 3.0 8.0 0.00 0.00 0.00 59 1009.1
20260509153804 68 216 4.0 9.0 0.00 0.00 0.00 59 1009.1
20260509153303 67 185 2.0 8.0 0.00 0.00 0.00 61 1009.2
20260509152803 67 181 5.0 10.0 0.00 0.00 0.00 61 1009.3
20260509152305 66 214 2.0 5.0 0.00 0.00 0.00 63 1009.3
20260509151803 65 163 3.0 6.0 0.00 0.00 0.00 62 1009.4
20260509150305 64 236 5.0 8.0 0.00 0.00 0.00 63 1009.7
20260509145803 63 197 3.0 9.0 0.00 0.00 0.00 64 1009.8
20260509145309 63 201 3.0 6.0 0.00 0.00 0.00 64 1009.9
20260509144809 63 216 5.0 9.0 0.00 0.00 0.00 63 1010.0
20260509144313 63 197 3.0 9.0 0.00 0.00 0.00 63 1010.0
20260509143322 63 206 4.0 8.0 0.00 0.00 0.00 62 1010.0
20260509142817 63 219 3.0 8.0 0.00 0.00 0.00 62 1010.0
20260509142306 63 221 3.0 8.0 0.00 0.00 0.00 63 1009.9
20260509141803 63 193 6.0 9.0 0.00 0.00 0.00 62 1009.8
20260509141304 63 193 5.0 10.0 0.00 0.00 0.00 62 1009.8
20260509140804 63 208 5.0 12.0 0.00 0.00 0.00 62 1009.8
20260509135803 63 192 2.0 5.0 0.00 0.00 0.00 64 1009.8
20260509135306 63 286 2.0 6.0 0.00 0.00 0.00 64 1009.8
20260509134803 62 248 2.0 7.0 0.00 0.00 0.00 64 1009.9
20260509133803 62 192 5.0 9.0 0.00 0.00 0.00 63 1009.8
20260509133303 62 227 4.0 9.0 0.00 0.00 0.00 63 1009.8
20260509132803 62 217 6.0 12.0 0.00 0.00 0.00 63 1009.9
20260509132306 62 194 6.0 12.0 0.00 0.00 0.00 63 1009.8
20260509131803 62 207 6.0 13.0 0.00 0.00 0.00 63 1009.8
20260509131303 62 221 5.0 12.0 0.00 0.00 0.00 63 1009.8
20260509130803 62 237 4.0 10.0 0.00 0.00 0.00 63 1009.7
20260509130304 62 238 3.0 9.0 0.00 0.00 0.00 64 1009.7
20260509124804 61 234 2.0 9.0 0.00 0.00 0.00 65 1009.7
20260509124303 60 228 2.0 7.0 0.00 0.00 0.00 65 1009.8
20260509123803 60 225 3.0 7.0 0.00 0.00 0.00 65 1009.7
20260509122804 60 211 2.0 6.0 0.00 0.00 0.00 66 1009.6
20260509121305 59 177 3.0 7.0 0.00 0.00 0.00 65 1009.6
20260509120803 59 184 3.0 8.0 0.00 0.00 0.00 65 1009.6
20260509120303 59 188 2.0 7.0 0.00 0.00 0.00 64 1009.6
20260509115803 59 202 3.0 8.0 0.00 0.00 0.00 64 1009.6
20260509115306 59 203 4.0 9.0 0.00 0.00 0.00 64 1009.6
20260509114803 59 177 3.0 7.0 0.00 0.00 0.00 63 1009.6
20260509114303 59 159 2.0 8.0 0.00 0.00 0.00 63 1009.5
20260509113803 58 186 3.0 6.0 0.00 0.00 0.00 63 1009.5
20260509113303 58 176 3.0 6.0 0.00 0.00 0.00 63 1009.4
20260509112803 58 177 3.0 7.0 0.00 0.00 0.00 63 1009.4
20260509112306 58 184 3.0 7.0 0.00 0.00 0.00 63 1009.4
20260509111803 58 177 3.0 7.0 0.00 0.00 0.00 63 1009.4
20260509111303 58 171 4.0 9.0 0.00 0.00 0.00 63 1009.4
20260509110803 58 171 3.0 5.0 0.00 0.00 0.00 63 1009.5
20260509110303 58 171 2.0 7.0 0.00 0.00 0.00 63 1009.4
20260509105306 58 178 3.0 8.0 0.00 0.00 0.00 62 1009.2
20260509104803 58 185 3.0 3.0 0.00 0.00 0.00 62 1009.2
20260509104303 58 188 2.0 3.0 0.00 0.00 0.00 62 1009.2
20260509103803 58 169 3.0 5.0 0.00 0.00 0.00 62 1009.0
20260509103303 58 184 2.0 3.0 0.00 0.00 0.00 61 1009.1
20260509102803 59 191 2.0 3.0 0.00 0.00 0.00 61 1009.1
20260509102305 59 186 2.0 3.0 0.00 0.00 0.00 61 1009.1
20260509101304 59 181 2.0 3.0 0.00 0.00 0.00 61 1009.0
20260509100803 59 184 4.0 8.0 0.00 0.00 0.00 60 1008.9
20260509095803 59 179 3.0 3.0 0.00 0.00 0.00 60 1008.8
20260509094803 59 197 2.0 3.0 0.00 0.00 0.00 59 1008.9
20260509094303 59 194 2.0 5.0 0.00 0.00 0.00 59 1009.0
20260509093804 59 203 3.0 7.0 0.00 0.00 0.00 59 1008.9
20260509093303 59 191 3.0 8.0 0.00 0.00 0.00 59 1008.9
20260509092803 59 222 2.0 8.0 0.00 0.00 0.00 59 1008.8
20260509092306 59 212 4.0 9.0 0.00 0.00 0.00 59 1008.8
20260509091803 59 213 3.0 7.0 0.00 0.00 0.00 59 1008.9
20260509090303 59 209 4.0 12.0 0.00 0.00 0.00 59 1009.1
20260509085803 59 196 3.0 9.0 0.00 0.00 0.00 59 1009.1
20260509085306 59 214 4.0 9.0 0.00 0.00 0.00 59 1009.2
20260509084803 59 221 5.0 10.0 0.00 0.00 0.00 60 1009.2
20260509084303 59 217 6.0 10.0 0.00 0.00 0.00 60 1009.2
20260509083803 58 246 4.0 9.0 0.00 0.00 0.00 60 1009.2
20260509083303 58 221 5.0 12.0 0.00 0.00 0.00 61 1009.3
20260509082804 58 198 2.0 10.0 0.00 0.00 0.00 61 1009.3
20260509082306 58 204 5.0 12.0 0.00 0.00 0.00 62 1009.4
20260509081804 57 197 5.0 12.0 0.00 0.00 0.00 63 1009.6
20260509080803 57 203 6.0 12.0 0.00 0.00 0.00 64 1009.7
20260509080303 57 222 5.0 9.0 0.00 0.00 0.00 64 1009.7
20260509075803 56 207 4.0 8.0 0.00 0.00 0.00 64 1009.7
20260509075306 56 196 4.0 9.0 0.00 0.00 0.00 65 1009.7
20260509074804 56 217 3.0 7.0 0.00 0.00 0.00 66 1009.7
20260509074303 56 209 2.0 3.0 0.00 0.00 0.00 66 1009.7
20260509073803 56 202 3.0 6.0 0.00 0.00 0.00 66 1009.7
20260509072804 55 205 3.0 8.0 0.00 0.00 0.00 67 1009.8
20260509072306 55 204 4.0 8.0 0.00 0.00 0.00 68 1009.7
20260509071803 55 197 3.0 7.0 0.00 0.00 0.00 68 1009.7